Wind_Speed
19 20 20 20 19 19 18 18 18 17 17 16 16 15 14 14 14 13 13 13 13 12 12 12 12 13 13 13 13 12 13 12 12 12 12 11 11 11 11 11 10 10 9 8 8 7 6 6 6 6 6 6
21 21 21 21 20 19 18 19 18 18 17 17 16 16 15 15 15 14 13 13 13 13 13 12 12 13 13 13 13 12 13 13 12 12 12 12 12 12 12 12 11 10 9 8 7 7 7 7 7 6 6 5
22 22 22 22 22 21 20 19 19 19 18 17 17 17 17 17 16 16 15 14 13 13 13 13 13 13 13 13 13 12 12 13 13 13 13 13 13 13 13 13 11 10 9 8 8 8 8 7 6 6 5 5
24 24 23 23 23 23 22 20 20 20 19 18 18 18 18 18 18 18 17 16 15 14 13 14 14 14 13 13 13 12 13 13 13 13 13 13 13 13 13 13 13 11 10 9 9 9 8 7 6 6 6 5
27 26 25 25 25 25 24 22 21 21 21 20 20 20 20 20 21 21 21 18 17 17 15 15 17 16 14 13 13 13 13 13 13 13 13 13 13 14 15 15 13 11 10 10 10 10 9 8 8 8 7 7
28 28 27 27 27 26 26 25 24 24 24 24 24 24 24 24 23 23 22 21 20 20 18 18 19 18 15 13 13 13 14 14 14 14 14 14 13 14 17 17 14 13 12 12 12 12 11 10 9 9 8 7
30 30 29 29 29 28 28 28 27 27 27 27 27 26 26 26 25 24 23 22 22 22 21 21 21 20 17 14 12 13 14 14 15 14 14 14 13 15 19 18 15 15 14 14 13 12 12 11 10 9 8 7
32 32 31 31 31 31 30 30 29 29 29 29 29 28 28 27 26 25 24 24 23 23 23 22 22 21 19 17 15 14 16 16 16 16 15 15 17 18 19 17 16 16 14 14 13 13 12 11 10 9 8 8
35 33 33 33 33 32 32 32 31 31 31 31 31 31 30 29 28 27 26 25 25 25 25 24 24 23 22 20 18 18 19 21 21 19 19 20 21 20 18 16 16 15 14 14 13 13 12 11 9 8 8 8
36 35 35 36 35 34 34 33 33 33 33 33 33 33 32 31 30 29 28 27 27 27 26 25 25 24 24 22 21 21 22 24 23 22 22 22 22 20 19 18 17 16 15 14 13 13 11 10 9 9 9 8
39 37 37 37 36 36 36 35 35 35 35 35 35 34 34 33 32 32 30 30 29 29 28 27 26 25 25 24 23 23 24 25 25 23 23 23 22 21 20 19 18 17 15 14 13 12 11 11 10 10 10 9
41 40 40 39 38 38 38 37 37 37 37 36 36 36 35 35 34 33 32 31 31 30 29 28 27 26 26 26 24 24 25 26 25 25 24 24 23 22 21 20 19 17 16 15 14 13 12 11 11 11 10 10
43 43 42 41 41 41 40 40 40 39 39 38 38 37 37 36 36 35 34 33 32 32 31 30 29 28 28 27 26 26 26 27 27 26 25 24 24 23 22 21 20 18 17 16 14 14 13 12 11 11 11 11
45 45 45 45 44 44 43 43 43 41 41 40 39 39 39 38 38 37 37 35 34 33 32 31 30 29 29 29 28 28 28 28 28 27 26 25 24 24 23 21 20 19 18 17 16 15 14 13 12 12 12 11
46 46 47 48 47 46 46 46 45 44 43 42 42 41 40 40 40 39 39 37 36 35 34 33 32 32 31 31 31 30 29 28 28 27 26 25 24 23 22 21 21 20 19 18 17 16 15 14 13 13 12 12
44 46 47 47 46 47 47 46 46 46 45 45 44 43 42 42 41 41 40 39 39 37 36 35 35 34 33 33 33 32 31 30 29 28 26 24 23 22 22 21 21 20 20 19 18 17 16 15 14 13 13 13
40 42 42 42 43 45 45 44 45 45 46 46 45 44 44 44 43 43 42 42 41 40 39 38 37 36 36 35 34 33 32 31 30 29 27 25 24 23 22 22 22 22 21 20 19 18 17 15 14 14 14 13
37 38 38 39 40 40 40 41 43 44 44 44 44 45 45 45 45 45 44 44 43 42 41 40 39 38 37 36 35 34 33 33 32 30 28 27 26 25 24 24 24 23 22 21 20 18 17 16 15 15 14 14
32 34 35 36 37 38 38 39 41 42 43 43 44 44 45 46 46 46 46 45 45 44 43 43 42 40 39 37 35 35 34 34 33 31 30 29 27 26 25 25 24 23 23 21 20 19 17 17 16 16 15 15
25 28 31 32 33 35 36 37 39 40 40 41 42 43 44 45 45 45 46 46 45 45 45 44 43 42 40 38 36 36 35 34 34 33 31 30 28 27 27 26 25 24 23 22 21 19 18 18 17 17 16 16
17 21 25 28 29 30 31 33 34 35 36 37 38 39 40 41 42 43 43 44 45 44 45 45 44 42 40 38 37 36 36 35 35 34 32 30 29 28 27 26 26 25 24 23 21 19 18 18 18 18 18 17
20 17 18 21 24 25 26 28 30 31 33 34 35 36 37 37 38 39 40 41 43 43 44 43 42 41 40 39 38 37 36 36 35 34 33 32 30 29 28 27 26 26 24 22 20 19 20 20 20 19 19 18
31 25 20 17 17 19 21 24 26 28 30 32 33 35 36 37 37 38 39 40 41 42 42 42 41 40 39 39 38 37 37 36 36 35 34 33 31 30 29 27 26 25 23 21 20 20 20 20 21 20 19 19
40 35 29 24 21 19 19 20 21 23 26 29 31 34 35 35 37 37 38 38 39 41 41 41 40 39 38 38 38 38 38 38 38 38 36 35 33 30 28 27 26 23 21 19 18 20 21 21 20 19 18 18
39 36 33 30 26 25 24 23 21 21 21 23 25 29 32 34 35 35 36 37 39 40 41 41 41 40 39 39 39 40 40 40 39 39 38 35 33 31 29 28 26 24 20 15 13 14 16 18 17 16 16 17
35 34 32 30 27 25 23 22 21 21 21 20 20 21 25 29 31 33 34 36 37 39 40 41 41 41 41 41 41 41 40 39 38 38 37 35 32 30 30 28 26 26 20 11 8 6 6 8 10 10 11 12
33 31 31 30 29 26 23 22 21 19 19 19 18 18 19 21 25 28 31 33 35 37 38 39 41 41 41 41 41 41 39 38 38 38 38 37 35 31 28 26 25 26 23 14 8 3 2 3 2 3 5 7
32 32 32 32 31 28 24 24 24 23 22 20 19 18 17 18 19 23 27 30 33 35 37 38 39 40 40 41 41 41 40 40 40 40 40 39 38 34 28 24 23 26 27 23 14 5 1 1 1 3 2 2
34 33 34 34 34 32 30 30 30 29 28 28 25 23 21 20 20 20 23 26 30 33 35 36 38 39 39 40 40 40 41 41 41 41 42 41 40 39 35 29 26 25 27 28 25 14 4 2 1 3 1 0
33 32 31 31 31 30 29 27 28 28 29 30 29 28 26 24 22 22 22 23 26 30 33 35 36 37 38 39 39 40 40 40 40 40 41 41 42 42 40 35 28 25 26 28 30 26 17 9 5 3 3 1
32 31 29 27 24 23 22 21 23 26 27 27 27 27 27 25 22 21 22 23 24 26 29 33 35 36 37 38 38 39 39 39 39 40 41 41 42 42 41 38 32 28 28 26 26 30 28 20 13 8 6 3
Wind_Direction
204 203 202 201 197 196 196 195 195 194 195 194 196 199 200 202 202 201 201 202 202 201 201 198 196 194 194 192 189 190 189 186 181 177 174 171 169 168 171 164 157 160 155 151 166 187 209 249 284 310 324 328
208 206 207 205 202 200 199 198 196 195 196 196 197 200 202 205 206 204 203 204 204 204 204 202 200 196 196 196 194 195 195 192 184 177 176 173 169 170 168 160 162 166 163 167 190 215 231 255 282 303 312 318
211 208 209 208 206 203 202 201 198 196 197 198 199 201 203 206 207 207 204 204 205 205 205 205 201 198 199 198 198 200 200 198 189 180 178 175 171 171 168 171 184 189 187 192 210 230 244 262 282 299 306 308
213 211 210 210 210 207 205 205 202 199 197 199 202 204 205 207 210 211 208 204 204 204 206 207 202 199 201 202 203 203 204 203 196 187 181 180 176 172 177 192 204 203 201 207 222 241 258 276 289 299 303 302
215 213 213 213 213 211 209 207 205 202 199 199 201 206 209 210 212 214 215 211 210 207 205 210 211 206 201 203 207 207 208 207 204 197 187 186 180 177 195 212 216 212 213 221 236 253 266 276 284 290 292 294
219 217 216 216 216 214 213 211 209 207 204 202 202 205 209 212 215 219 221 221 220 217 211 212 220 220 210 205 209 210 211 210 210 204 193 191 182 190 217 228 229 228 228 234 246 255 262 267 272 276 277 278
222 221 220 220 219 218 218 217 216 214 212 210 209 210 212 215 220 223 225 226 225 226 222 219 224 229 224 212 210 212 212 211 213 210 201 197 189 205 229 234 235 237 236 239 246 251 255 259 264 267 268 268
225 223 222 222 222 221 220 221 220 219 217 215 215 216 217 218 221 224 226 227 227 228 228 225 225 229 229 221 210 209 210 209 209 207 202 199 201 218 234 235 237 239 237 240 244 249 252 255 261 265 266 268
226 225 223 224 223 223 223 222 222 221 220 219 218 219 220 220 221 223 225 226 227 228 228 227 227 227 229 226 214 207 208 207 204 203 201 204 212 225 236 238 241 241 240 243 247 251 254 258 264 269 271 275
227 226 225 225 224 225 225 225 225 224 223 222 221 221 221 221 222 223 224 226 227 229 229 228 228 228 228 229 221 212 210 210 209 210 211 215 223 231 237 240 243 244 245 247 251 254 257 262 269 274 275 277
228 228 228 228 227 226 226 226 227 226 226 225 224 223 223 223 223 224 224 225 227 229 230 230 229 230 229 229 226 220 217 217 218 220 221 224 229 234 238 241 244 244 245 248 252 256 260 265 271 275 277 279
229 230 230 230 229 229 229 228 228 228 228 228 227 226 226 226 226 226 226 226 227 229 230 231 231 230 231 230 230 227 224 223 224 225 227 229 232 235 238 241 243 243 243 247 251 256 260 264 270 275 278 280
231 231 231 230 230 231 230 230 231 230 230 230 229 228 228 228 228 228 228 228 229 229 230 231 232 231 232 232 232 231 229 228 228 229 231 233 234 236 238 240 241 241 242 245 250 255 259 263 269 274 278 282
232 232 232 232 232 232 231 232 232 232 231 232 231 230 230 229 230 230 230 230 230 230 230 231 232 232 232 232 233 233 232 231 231 232 234 235 235 235 236 237 239 240 241 244 249 254 258 262 267 274 277 281
234 234 234 234 234 233 233 234 233 233 233 233 233 233 232 231 231 232 232 231 231 231 230 231 231 233 233 233 233 233 233 233 232 233 236 237 236 235 235 237 239 239 241 243 248 253 258 262 265 272 276 280
238 237 237 236 235 235 235 235 234 234 234 234 235 234 233 233 232 232 232 232 232 232 231 231 231 232 233 233 233 233 233 233 233 234 235 236 234 234 234 236 238 239 241 243 247 252 256 260 264 270 275 278
245 243 241 240 238 238 237 235 235 236 236 236 236 235 234 234 233 232 233 232 232 232 232 232 231 231 232 234 234 233 232 231 232 232 231 230 229 229 230 232 235 237 239 242 245 250 254 258 262 267 273 276
252 249 247 246 245 243 241 239 238 238 238 238 237 236 236 235 234 233 233 233 232 232 231 231 231 231 232 233 233 231 230 229 230 229 228 227 226 227 229 232 234 236 238 241 243 248 252 256 261 266 271 275
260 256 254 252 251 249 247 246 244 243 242 241 240 239 238 237 236 234 233 233 232 231 231 230 230 230 231 231 232 230 229 228 228 228 228 227 226 226 228 231 233 235 237 239 242 246 251 255 259 264 269 274
276 268 263 260 258 256 254 252 251 250 247 246 244 243 241 240 239 237 235 233 232 231 231 230 230 230 230 230 229 229 227 226 226 226 226 227 227 226 227 228 229 232 235 238 242 246 250 254 258 262 268 273
314 291 278 270 266 264 261 259 257 256 254 252 250 248 247 244 242 240 237 235 234 232 232 231 231 230 228 228 228 227 225 224 224 225 224 224 226 227 228 227 227 230 233 237 241 245 250 254 258 262 267 273
359 333 307 286 276 270 267 264 262 260 258 256 254 252 251 248 246 244 241 238 237 235 234 233 231 229 227 227 226 225 223 222 222 223 224 224 224 226 227 227 228 230 233 236 240 245 249 253 258 263 268 273
18 8 352 329 305 288 278 273 269 265 262 259 257 255 253 250 249 247 244 241 239 237 235 233 231 229 228 226 224 223 220 219 218 219 221 223 224 224 226 228 231 233 234 237 240 245 249 254 259 266 272 273
20 16 8 356 342 326 313 301 289 281 274 268 263 259 255 252 249 247 245 242 240 238 236 235 233 231 229 226 224 221 218 217 218 218 219 221 222 221 221 225 228 230 231 235 241 248 253 259 264 269 272 271
16 16 11 2 352 342 333 326 316 306 297 286 276 268 260 255 251 248 245 242 240 238 236 234 232 230 228 226 224 222 222 222 221 220 220 220 220 219 218 219 222 224 223 229 240 250 258 262 266 269 268 264
13 13 12 7 0 354 348 342 332 321 314 303 291 280 267 260 255 251 247 244 241 239 236 233 231 229 228 226 224 223 224 223 220 219 218 217 215 216 218 219 221 219 214 212 220 238 264 265 267 264 256 253
9 9 10 9 8 8 4 360 353 342 334 324 309 296 280 268 260 255 251 247 243 240 237 234 232 230 229 227 224 222 219 218 217 217 217 216 215 213 213 218 221 218 214 205 185 187 256 252 277 249 227 232
4 4 4 4 4 7 7 4 3 359 356 350 334 318 303 289 277 266 258 252 246 242 240 237 234 232 230 228 226 223 219 217 216 216 216 216 215 211 206 207 214 217 217 209 194 179 209 151 268 242 192 198
359 0 1 1 0 1 2 1 1 359 355 353 350 341 329 316 302 285 271 260 251 245 242 239 236 233 231 230 228 225 222 221 220 219 218 217 215 213 209 205 207 211 213 213 211 206 181 136 218 233 168 85
355 357 359 0 0 359 356 353 353 352 349 349 351 350 345 334 317 299 285 271 259 251 245 242 238 235 232 231 230 227 225 224 222 219 219 219 217 215 215 211 204 202 206 212 216 213 212 223 228 169 137 170
352 352 352 354 355 354 351 344 341 344 345 347 349 351 351 347 332 311 294 281 270 259 251 245 241 238 235 233 232 230 227 224 222 222 222 222 220 218 217 213 204 201 201 204 213 216 218 227 230 212 192 199
Height
791 791 792 793 794 796 797 798 800 802 803 804 806 807 809 810 811 812 813 814 815 816 817 817 818 819 820 821 822 823 824 824 825 825 826 826 827 828 829 829 830 830 830 830 829 828 828 827 826 827 827 827
789 790 791 792 793 794 796 797 798 800 801 803 805 806 807 809 810 811 812 813 814 815 816 817 817 818 819 820 821 822 823 823 824 824 825 826 826 827 828 828 828 829 828 828 828 827 827 826 826 826 827 826
788 789 790 791 792 793 794 796 797 798 800 802 803 804 806 807 808 809 810 812 813 814 815 816 816 817 818 819 821 821 822 823 823 824 824 825 825 826 827 826 827 827 827 827 826 826 826 826 826 826 826 826
786 787 788 789 790 791 793 794 796 797 798 800 801 802 804 805 806 807 809 810 811 813 814 814 815 816 817 818 820 821 821 822 823 823 823 824 824 825 825 824 825 825 825 825 825 824 825 825 825 825 825 825
784 786 786 787 788 790 791 793 794 795 797 798 799 800 801 803 804 805 806 808 809 811 812 813 813 814 816 817 818 820 820 821 822 822 823 823 824 824 824 823 823 824 824 824 824 824 824 824 824 824 824 824
782 783 784 785 786 788 789 791 792 793 795 795 797 798 799 800 801 802 804 805 807 808 810 810 811 812 814 816 817 818 819 820 821 822 822 822 823 823 821 822 823 823 823 823 823 823 823 823 823 824 824 824
780 781 782 783 784 785 787 788 790 791 792 793 794 795 796 797 798 800 801 803 804 805 807 808 809 810 812 814 816 817 818 819 820 821 821 822 823 821 820 821 822 822 823 823 823 823 823 823 823 823 823 823
777 778 779 780 781 783 784 785 787 788 790 791 792 792 793 794 796 797 799 800 802 803 804 806 807 808 810 812 814 815 816 817 818 819 820 821 820 819 819 821 821 822 822 822 822 822 822 822 822 822 822 822
773 775 776 777 778 779 781 782 784 785 786 788 789 790 791 792 793 795 796 798 799 801 802 803 805 806 808 809 811 813 814 815 816 817 818 818 817 817 819 820 820 821 821 822 822 822 822 821 821 821 820 820
770 771 773 773 775 776 777 779 780 782 783 784 785 787 788 789 790 792 793 795 796 798 799 801 802 803 805 807 809 810 811 813 814 815 816 816 816 817 818 818 819 820 820 821 821 821 821 821 820 820 820 819
767 768 769 770 772 773 774 775 776 778 779 780 782 783 785 786 787 788 790 792 793 795 796 798 799 801 803 805 806 808 810 811 812 813 814 815 815 816 817 817 818 818 819 819 819 820 820 820 820 819 819 818
763 764 766 767 768 769 770 771 772 773 775 776 778 779 781 783 784 785 787 788 790 792 794 795 797 799 800 802 804 806 807 808 810 811 812 813 814 814 815 816 817 817 817 818 818 818 818 818 818 818 818 818
760 761 762 763 764 765 766 767 768 769 771 772 774 776 777 779 780 782 783 785 787 789 791 793 794 796 798 800 802 803 805 806 807 808 810 811 812 813 813 814 815 815 816 816 816 816 817 817 817 817 816 816
757 757 757 758 759 760 762 762 764 766 767 768 770 771 773 775 776 778 779 781 783 785 787 789 791 793 795 797 798 800 801 803 805 806 807 808 809 810 811 812 813 814 814 814 814 814 815 815 815 815 815 815
753 753 753 753 755 756 757 758 760 761 762 764 765 767 769 771 772 774 776 778 780 781 783 785 787 789 791 793 794 796 798 800 801 803 804 806 807 808 809 810 811 811 812 812 812 812 812 812 813 813 813 813
752 751 750 751 752 752 753 755 756 757 758 760 761 763 765 766 768 770 772 774 775 777 779 780 782 784 786 788 790 791 794 796 798 800 801 803 804 805 806 807 808 809 809 810 810 810 810 810 810 811 811 811
752 751 751 751 751 750 751 753 753 753 754 756 757 759 761 762 764 766 767 769 770 772 774 775 777 779 781 783 785 788 790 792 794 796 797 799 801 802 803 804 805 806 807 807 807 807 807 808 808 808 808 808
751 751 751 751 751 751 751 751 751 751 752 753 754 755 756 758 759 761 762 764 765 767 768 770 772 773 776 779 781 784 786 788 790 792 794 795 797 798 800 801 802 803 804 804 805 805 805 805 806 806 806 806
750 750 750 750 750 750 750 750 750 749 750 751 751 752 752 753 755 756 758 759 761 762 763 765 766 768 771 774 777 779 782 785 787 789 790 792 794 795 796 797 799 800 801 801 802 802 802 803 803 803 803 803
749 749 749 748 748 748 749 749 749 749 749 750 750 750 750 750 752 753 754 756 757 758 759 760 761 764 767 770 773 775 778 780 783 785 787 789 790 792 793 794 796 797 798 798 799 800 800 800 800 801 801 801
748 748 747 747 747 747 747 748 748 749 749 750 750 750 750 750 751 752 753 754 755 756 756 757 758 760 763 766 768 771 773 776 778 781 783 785 787 788 790 791 792 794 795 796 796 797 797 798 798 798 799 799
747 746 746 746 746 746 746 746 746 747 747 747 748 748 749 750 751 751 752 753 753 754 754 755 756 758 760 762 764 766 769 772 774 777 779 781 783 785 787 788 790 791 792 793 794 795 795 795 795 796 797 797
747 746 745 745 745 744 744 744 744 744 744 744 744 744 745 745 746 747 749 750 751 752 752 754 755 756 757 759 761 762 765 768 771 773 776 778 779 781 783 785 787 788 790 791 792 792 792 792 793 793 794 794
746 745 744 744 743 743 743 742 742 742 741 741 740 740 740 741 741 742 743 744 746 747 748 750 751 753 755 756 758 759 760 763 765 768 770 773 775 777 780 782 784 786 788 789 790 790 790 789 790 790 790 790
748 746 745 743 743 742 741 740 740 739 739 739 738 738 738 737 738 738 739 739 739 741 742 744 746 747 749 751 753 754 755 757 760 763 766 769 772 774 776 778 780 783 786 788 788 788 788 787 787 787 786 786
751 749 748 746 745 742 741 740 739 738 737 737 736 736 735 735 735 735 735 735 735 736 737 738 739 741 742 745 747 749 751 754 756 759 762 765 768 770 772 774 776 779 782 785 785 786 786 785 784 783 783 783
754 752 750 748 745 743 741 739 738 738 736 736 735 734 733 733 732 732 732 732 733 733 734 735 736 737 738 740 742 744 747 749 752 754 757 759 762 765 768 771 772 774 777 780 782 786 785 782 781 780 780 781
754 751 748 746 743 742 740 738 737 736 735 734 734 733 732 731 730 729 729 729 730 730 731 732 733 734 735 736 738 740 742 743 746 748 751 754 756 760 763 766 768 769 772 774 778 782 782 783 783 777 776 779
753 749 746 742 739 738 736 735 734 732 731 731 731 730 729 728 727 727 727 726 727 726 727 728 730 731 732 733 735 736 737 738 740 742 745 748 751 753 755 759 763 765 767 769 771 774 776 779 779 774 775 778
754 750 747 743 740 738 736 735 734 732 730 728 727 727 726 725 725 725 725 724 724 724 724 725 726 728 729 730 731 732 734 735 736 738 740 743 745 747 750 754 757 760 763 765 767 769 770 770 770 771 775 776
754 751 749 747 744 742 740 738 736 734 732 729 726 725 724 724 723 723 723 722 722 721 721 722 723 724 725 726 727 728 730 731 732 734 735 737 740 742 746 749 751 753 757 761 763 764 766 767 767 769 772 773